Time,TemperatureF,DewpointF,PressureIn,WindDirection,WindDirectionDegrees,WindSpeedMPH,WindSpeedGustMPH,Humidity,HourlyPrecipIn,Conditions,Clouds,dailyrainin,SoftwareType,DateUTC
2013-05-19 00:05:00,60.1,59.0,30.23,ESE,118,5.0,7.0,95,0.00,,,0.00,weatherlink.com 1.10,2013-05-19 04:05:00,
2013-05-19 00:20:00,60.2,59.0,30.23,East,96,6.0,7.0,95,0.00,,,0.00,weatherlink.com 1.10,2013-05-19 04:20:00,
2013-05-19 00:35:00,60.2,59.0,30.22,ESE,110,7.0,8.0,95,0.00,,,0.00,weatherlink.com 1.10,2013-05-19 04:35:00,
2013-05-19 00:50:00,60.3,59.0,30.22,ESE,105,4.0,8.0,95,0.00,,,0.00,weatherlink.com 1.10,2013-05-19 04:50:00,
2013-05-19 01:06:00,60.5,59.0,30.22,ESE,105,6.0,7.0,95,0.00,,,0.00,weatherlink.com 1.10,2013-05-19 05:06:00,
2013-05-19 01:21:00,60.7,59.0,30.21,East,85,6.0,8.0,95,0.00,,,0.00,weatherlink.com 1.10,2013-05-19 05:21:00,
2013-05-19 01:36:00,60.7,59.0,30.21,East,98,6.0,7.0,95,0.00,,,0.00,weatherlink.com 1.10,2013-05-19 05:36:00,
2013-05-19 01:51:00,60.8,60.0,30.21,East,91,8.0,8.0,96,0.00,,,0.00,weatherlink.com 1.10,2013-05-19 05:51:00,
2013-05-19 02:06:00,60.9,60.0,30.21,East,101,6.0,7.0,96,0.00,,,0.00,weatherlink.com 1.10,2013-05-19 06:06:00,
2013-05-19 02:21:00,61.1,60.0,30.20,East,83,7.0,7.0,96,0.00,,,0.00,weatherlink.com 1.10,2013-05-19 06:21:00,
2013-05-19 02:36:00,61.2,60.0,30.20,East,98,5.0,8.0,96,0.00,,,0.00,weatherlink.com 1.10,2013-05-19 06:36:00,
2013-05-19 02:51:00,61.1,60.0,30.20,East,82,5.0,6.0,96,0.00,,,0.00,weatherlink.com 1.10,2013-05-19 06:51:00,
2013-05-19 03:06:00,61.3,60.0,30.20,East,92,5.0,5.0,96,0.00,,,0.00,weatherlink.com 1.10,2013-05-19 07:06:00,
2013-05-19 03:21:00,61.3,60.0,30.19,East,86,5.0,7.0,96,0.00,,,0.00,weatherlink.com 1.10,2013-05-19 07:21:00,
2013-05-19 03:36:00,61.5,60.0,30.19,East,101,7.0,9.0,96,0.00,,,0.00,weatherlink.com 1.10,2013-05-19 07:36:00,
2013-05-19 03:51:00,61.6,61.0,30.18,East,96,4.0,6.0,96,0.00,,,0.00,weatherlink.com 1.10,2013-05-19 07:51:00,
2013-05-19 04:06:00,61.6,61.0,30.18,ESE,109,5.0,6.0,96,0.00,,,0.00,weatherlink.com 1.10,2013-05-19 08:06:00,
2013-05-19 04:21:00,61.7,61.0,30.18,ESE,108,5.0,6.0,96,0.00,,,0.00,weatherlink.com 1.10,2013-05-19 08:21:00,
2013-05-19 04:36:00,61.8,61.0,30.18,ESE,120,3.0,5.0,96,0.00,,,0.00,weatherlink.com 1.10,2013-05-19 08:36:00,
2013-05-19 04:51:00,62.0,61.0,30.18,ESE,111,2.0,4.0,96,0.00,,,0.00,weatherlink.com 1.10,2013-05-19 08:51:00,
2013-05-19 05:06:00,62.2,61.0,30.18,SSE,147,4.0,6.0,96,0.00,,,0.00,weatherlink.com 1.10,2013-05-19 09:06:00,
2013-05-19 05:21:00,62.4,61.0,30.18,SE,136,4.0,8.0,96,0.00,,,0.00,weatherlink.com 1.10,2013-05-19 09:21:00,
2013-05-19 05:36:00,62.5,61.0,30.18,SE,146,5.0,8.0,96,0.00,,,0.00,weatherlink.com 1.10,2013-05-19 09:36:00,
2013-05-19 05:51:00,62.7,62.0,30.18,SE,132,5.0,7.0,96,0.00,,,0.00,weatherlink.com 1.10,2013-05-19 09:51:00,
2013-05-19 06:06:00,62.7,62.0,30.17,ESE,119,8.0,9.0,96,0.00,,,0.00,weatherlink.com 1.10,2013-05-19 10:06:00,
2013-05-19 06:21:00,62.8,62.0,30.18,SE,131,3.0,9.0,96,0.00,,,0.00,weatherlink.com 1.10,2013-05-19 10:21:00,
2013-05-19 06:36:00,62.8,62.0,30.18,ESE,115,7.0,9.0,96,0.00,,,0.00,weatherlink.com 1.10,2013-05-19 10:36:00,
2013-05-19 06:51:00,62.7,62.0,30.18,SE,129,7.0,8.0,96,0.00,,,0.00,weatherlink.com 1.10,2013-05-19 10:51:00,
2013-05-19 07:07:00,62.7,62.0,30.19,SE,132,4.0,7.0,96,0.00,,,0.00,weatherlink.com 1.10,2013-05-19 11:07:00,
2013-05-19 07:21:00,62.8,62.0,30.19,SE,125,8.0,8.0,96,0.00,,,0.00,weatherlink.com 1.10,2013-05-19 11:21:00,
2013-05-19 07:36:00,62.8,62.0,30.19,SE,134,5.0,8.0,96,0.00,,,0.00,weatherlink.com 1.10,2013-05-19 11:36:00,
2013-05-19 07:51:00,62.9,62.0,30.20,ESE,107,4.0,5.0,96,0.00,,,0.00,weatherlink.com 1.10,2013-05-19 11:51:00,
2013-05-19 08:06:00,62.9,62.0,30.20,ESE,110,5.0,6.0,96,0.00,,,0.00,weatherlink.com 1.10,2013-05-19 12:06:00,
2013-05-19 08:21:00,62.9,62.0,30.21,SE,128,6.0,6.0,96,0.00,,,0.00,weatherlink.com 1.10,2013-05-19 12:21:00,
2013-05-19 08:36:00,62.9,62.0,30.22,East,94,3.0,5.0,96,0.00,,,0.00,weatherlink.com 1.10,2013-05-19 12:36:00,
2013-05-19 08:51:00,62.9,62.0,30.22,ESE,109,3.0,5.0,96,0.00,,,0.00,weatherlink.com 1.10,2013-05-19 12:51:00,
2013-05-19 09:06:00,62.8,62.0,30.22,East,88,4.0,5.0,96,0.00,,,0.00,weatherlink.com 1.10,2013-05-19 13:06:00,
2013-05-19 09:21:00,62.8,62.0,30.23,ESE,105,1.0,4.0,96,0.00,,,0.00,weatherlink.com 1.10,2013-05-19 13:21:00,
2013-05-19 09:36:00,62.8,62.0,30.23,East,84,3.0,4.0,96,0.00,,,0.00,weatherlink.com 1.10,2013-05-19 13:36:00,
2013-05-19 09:51:00,62.8,62.0,30.22,East,92,5.0,5.0,96,0.00,,,0.00,weatherlink.com 1.10,2013-05-19 13:51:00,
2013-05-19 10:06:00,62.9,62.0,30.22,East,94,0.0,4.0,96,0.00,,,0.00,weatherlink.com 1.10,2013-05-19 14:06:00,
2013-05-19 10:21:00,62.8,62.0,30.22,East,80,0.0,0.0,96,0.00,,,0.00,weatherlink.com 1.10,2013-05-19 14:21:00,
2013-05-19 10:36:00,62.9,62.0,30.22,ENE,71,3.0,5.0,97,0.00,,,0.00,weatherlink.com 1.10,2013-05-19 14:36:00,
2013-05-19 10:51:00,62.8,62.0,30.22,East,79,5.0,6.0,97,0.00,,,0.00,weatherlink.com 1.10,2013-05-19 14:51:00,
2013-05-19 11:06:00,62.7,62.0,30.22,East,82,5.0,5.0,97,0.00,,,0.00,weatherlink.com 1.10,2013-05-19 15:06:00,
2013-05-19 11:21:00,62.7,62.0,30.22,ENE,72,4.0,5.0,97,0.00,,,0.00,weatherlink.com 1.10,2013-05-19 15:21:00,
2013-05-19 11:36:00,62.9,62.0,30.22,East,84,4.0,5.0,97,0.00,,,0.00,weatherlink.com 1.10,2013-05-19 15:36:00,
2013-05-19 11:51:00,63.0,62.0,30.22,East,83,3.0,4.0,97,0.00,,,0.00,weatherlink.com 1.10,2013-05-19 15:51:00,
2013-05-19 12:06:00,63.1,62.0,30.21,East,82,3.0,5.0,97,0.00,,,0.00,weatherlink.com 1.10,2013-05-19 16:06:00,
2013-05-19 12:21:00,63.2,62.0,30.21,ENE,76,5.0,6.0,97,0.00,,,0.00,weatherlink.com 1.10,2013-05-19 16:21:00,
2013-05-19 12:36:00,63.2,62.0,30.21,ENE,72,3.0,4.0,97,0.00,,,0.00,weatherlink.com 1.10,2013-05-19 16:36:00,
2013-05-19 12:51:00,63.5,63.0,30.20,East,90,2.0,3.0,97,0.00,,,0.00,weatherlink.com 1.10,2013-05-19 16:51:00,
2013-05-19 13:06:00,63.9,63.0,30.20,ENE,67,2.0,2.0,97,0.00,,,0.00,weatherlink.com 1.10,2013-05-19 17:06:00,
2013-05-19 13:21:00,64.1,63.0,30.19,ENE,70,2.0,3.0,96,0.00,,,0.00,weatherlink.com 1.10,2013-05-19 17:21:00,
2013-05-19 13:37:00,64.5,63.0,30.19,ENE,70,3.0,3.0,96,0.00,,,0.00,weatherlink.com 1.10,2013-05-19 17:37:00,
2013-05-19 13:52:00,65.1,64.0,30.18,ENE,65,2.0,3.0,95,0.00,,,0.00,weatherlink.com 1.10,2013-05-19 17:52:00,
2013-05-19 14:07:00,65.6,64.0,30.17,ENE,70,4.0,4.0,94,0.00,,,0.00,weatherlink.com 1.10,2013-05-19 18:07:00,
2013-05-19 14:22:00,65.8,64.0,30.16,ENE,58,3.0,5.0,93,0.00,,,0.00,weatherlink.com 1.10,2013-05-19 18:22:00,
2013-05-19 14:37:00,66.9,65.0,30.16,NE,46,3.0,3.0,92,0.00,,,0.00,weatherlink.com 1.10,2013-05-19 18:37:00,
2013-05-19 14:52:00,67.4,65.0,30.16,ENE,65,5.0,6.0,90,0.00,,,0.00,weatherlink.com 1.10,2013-05-19 18:52:00,
2013-05-19 15:07:00,67.2,64.0,30.15,ENE,70,6.0,6.0,90,0.00,,,0.00,weatherlink.com 1.10,2013-05-19 19:07:00,
2013-05-19 15:22:00,67.5,65.0,30.15,ENE,70,6.0,6.0,90,0.00,,,0.00,weatherlink.com 1.10,2013-05-19 19:22:00,
2013-05-19 15:37:00,67.4,65.0,30.15,ENE,70,8.0,9.0,90,0.00,,,0.00,weatherlink.com 1.10,2013-05-19 19:37:00,
2013-05-19 15:52:00,67.9,65.0,30.14,ENE,77,7.0,8.0,89,0.00,,,0.00,weatherlink.com 1.10,2013-05-19 19:52:00,
2013-05-19 16:07:00,67.6,65.0,30.14,East,79,8.0,8.0,90,0.00,,,0.00,weatherlink.com 1.10,2013-05-19 20:07:00,
2013-05-19 16:22:00,68.1,65.0,30.13,ENE,70,7.0,7.0,89,0.00,,,0.00,weatherlink.com 1.10,2013-05-19 20:22:00,
2013-05-19 16:37:00,68.0,65.0,30.13,ENE,74,8.0,8.0,89,0.00,,,0.00,weatherlink.com 1.10,2013-05-19 20:37:00,
2013-05-19 16:52:00,68.1,65.0,30.13,ENE,77,7.0,7.0,90,0.00,,,0.00,weatherlink.com 1.10,2013-05-19 20:52:00,
2013-05-19 17:07:00,67.7,65.0,30.13,ENE,75,6.0,7.0,91,0.00,,,0.00,weatherlink.com 1.10,2013-05-19 21:07:00,
2013-05-19 17:22:00,67.7,65.0,30.13,East,93,3.0,6.0,90,0.00,,,0.00,weatherlink.com 1.10,2013-05-19 21:22:00,
2013-05-19 17:37:00,68.1,65.0,30.13,ESE,115,2.0,3.0,90,0.00,,,0.00,weatherlink.com 1.10,2013-05-19 21:37:00,
2013-05-19 17:52:00,67.9,65.0,30.13,East,99,3.0,4.0,89,0.00,,,0.00,weatherlink.com 1.10,2013-05-19 21:52:00,
2013-05-19 18:07:00,67.8,65.0,30.12,East,100,3.0,5.0,90,0.00,,,0.00,weatherlink.com 1.10,2013-05-19 22:07:00,
2013-05-19 18:22:00,68.3,65.0,30.12,East,95,5.0,6.0,89,0.00,,,0.00,weatherlink.com 1.10,2013-05-19 22:22:00,
2013-05-19 18:37:00,67.6,65.0,30.12,ESE,113,5.0,5.0,91,0.00,,,0.00,weatherlink.com 1.10,2013-05-19 22:37:00,
2013-05-19 18:52:00,67.9,65.0,30.12,East,98,6.0,6.0,89,0.00,,,0.00,weatherlink.com 1.10,2013-05-19 22:52:00,
2013-05-19 19:07:00,67.7,65.0,30.12,East,89,5.0,5.0,90,0.00,,,0.00,weatherlink.com 1.10,2013-05-19 23:07:00,
2013-05-19 19:22:00,67.7,65.0,30.12,ESE,109,4.0,5.0,90,0.00,,,0.00,weatherlink.com 1.10,2013-05-19 23:22:00,
2013-05-19 19:37:00,67.6,65.0,30.12,ESE,106,4.0,5.0,90,0.00,,,0.00,weatherlink.com 1.10,2013-05-19 23:37:00,
2013-05-19 19:52:00,67.5,65.0,30.12,East,84,8.0,8.0,91,0.00,,,0.00,weatherlink.com 1.10,2013-05-19 23:52:00,
2013-05-19 20:07:00,67.5,65.0,30.12,East,85,5.0,7.0,91,0.00,,,0.00,weatherlink.com 1.10,2013-05-20 00:07:00,
2013-05-19 20:22:00,67.7,65.0,30.12,East,97,5.0,7.0,90,0.00,,,0.00,weatherlink.com 1.10,2013-05-20 00:22:00,
2013-05-19 20:37:00,67.5,65.0,30.13,East,101,4.0,6.0,92,0.00,,,0.00,weatherlink.com 1.10,2013-05-20 00:37:00,
2013-05-19 20:52:00,67.5,65.0,30.13,East,87,6.0,6.0,92,0.00,,,0.00,weatherlink.com 1.10,2013-05-20 00:52:00,
2013-05-19 21:07:00,67.5,65.0,30.14,ENE,76,7.0,7.0,92,0.00,,,0.00,weatherlink.com 1.10,2013-05-20 01:07:00,
2013-05-19 21:22:00,67.8,66.0,30.14,ENE,70,1.0,6.0,92,0.00,,,0.00,weatherlink.com 1.10,2013-05-20 01:22:00,
2013-05-19 21:37:00,68.2,66.0,30.15,ENE,65,1.0,2.0,91,0.00,,,0.00,weatherlink.com 1.10,2013-05-20 01:37:00,
2013-05-19 21:52:00,68.3,65.0,30.15,ENE,65,0.0,1.0,90,0.00,,,0.00,weatherlink.com 1.10,2013-05-20 01:52:00,
2013-05-19 22:07:00,68.1,65.0,30.16,ESE,106,2.0,2.0,91,0.00,,,0.00,weatherlink.com 1.10,2013-05-20 02:07:00,
2013-05-19 22:22:00,68.0,66.0,30.16,ESE,108,0.0,2.0,92,0.00,,,0.00,weatherlink.com 1.10,2013-05-20 02:22:00,
2013-05-19 22:37:00,67.9,66.0,30.16,East,79,2.0,2.0,92,0.00,,,0.00,weatherlink.com 1.10,2013-05-20 02:37:00,
2013-05-19 22:52:00,68.1,66.0,30.16,East,86,1.0,2.0,93,0.00,,,0.00,weatherlink.com 1.10,2013-05-20 02:52:00,
2013-05-19 23:07:00,67.9,66.0,30.15,East,83,2.0,2.0,93,0.00,,,0.00,weatherlink.com 1.10,2013-05-20 03:07:00,
2013-05-19 23:22:00,68.0,66.0,30.15,East,98,3.0,3.0,93,0.00,,,0.00,weatherlink.com 1.10,2013-05-20 03:22:00,
2013-05-19 23:37:00,67.8,66.0,30.15,SSW,197,2.0,3.0,93,0.00,,,0.00,weatherlink.com 1.10,2013-05-20 03:37:00,
2013-05-19 23:52:00,67.7,66.0,30.14,SSW,201,3.0,7.0,93,0.00,,,0.00,weatherlink.com 1.10,2013-05-20 03:52:00,